Time,TemperatureF,DewpointF,PressureIn,WindDirection,WindDirectionDegrees,WindSpeedMPH,WindSpeedGustMPH,Humidity,HourlyPrecipIn,Conditions,Clouds,dailyrainin,SoftwareType,DateUTC
2013-01-18 00:01:00,52.7,13.8,30.21,SE,137,1.0,0.0,21,0.00,,,-99.99,FreeWX-Wi 1.02,2013-01-18 08:01:00,
2013-01-18 00:06:00,52.2,13.5,30.21,North,-999,0.0,4.0,21,0.00,,,-99.99,FreeWX-Wi 1.02,2013-01-18 08:06:00,
2013-01-18 00:11:00,51.4,12.7,30.21,North,-999,0.0,0.0,21,0.00,,,-99.99,FreeWX-Wi 1.02,2013-01-18 08:11:00,
2013-01-18 00:16:00,51.1,12.6,30.21,North,-999,0.0,0.0,21,0.00,,,-99.99,FreeWX-Wi 1.02,2013-01-18 08:16:00,
2013-01-18 00:21:00,50.0,9.3,30.21,North,-999,0.0,3.6,19,0.00,,,-99.99,FreeWX-Wi 1.02,2013-01-18 08:21:00,
2013-01-18 00:26:00,49.5,9.0,30.21,North,-999,0.0,2.7,19,0.00,,,-99.99,FreeWX-Wi 1.02,2013-01-18 08:26:00,
2013-01-18 00:31:00,48.9,8.4,30.21,North,-999,0.0,4.0,19,0.00,,,-99.99,FreeWX-Wi 1.02,2013-01-18 08:31:00,
2013-01-18 00:36:00,48.6,8.2,30.21,North,-999,0.0,3.1,19,0.00,,,-99.99,FreeWX-Wi 1.02,2013-01-18 08:36:00,
2013-01-18 00:41:00,50.5,9.9,30.21,SE,144,1.0,6.3,19,0.00,,,-99.99,FreeWX-Wi 1.02,2013-01-18 08:41:00,
2013-01-18 00:46:00,52.5,13.8,30.21,SE,131,2.0,4.9,21,0.00,,,-99.99,FreeWX-Wi 1.02,2013-01-18 08:46:00,
2013-01-18 00:51:00,53.8,13.6,30.21,ESE,115,2.0,4.0,20,0.00,,,-99.99,FreeWX-Wi 1.02,2013-01-18 08:51:00,
2013-01-18 00:56:00,53.4,14.5,30.21,East,99,2.0,4.0,21,0.00,,,-99.99,FreeWX-Wi 1.02,2013-01-18 08:56:00,
2013-01-18 01:01:00,53.2,14.4,30.21,East,84,2.0,3.6,21,0.00,,,-99.99,FreeWX-Wi 1.02,2013-01-18 09:01:00,
2013-01-18 01:06:00,52.0,13.3,30.21,ENE,74,2.0,3.6,21,0.00,,,-99.99,FreeWX-Wi 1.02,2013-01-18 09:06:00,
2013-01-18 01:11:00,50.4,9.7,30.21,ENE,72,1.0,0.0,19,0.00,,,-99.99,FreeWX-Wi 1.02,2013-01-18 09:11:00,
2013-01-18 01:16:00,48.9,8.4,30.21,ENE,72,1.0,2.7,19,0.00,,,-99.99,FreeWX-Wi 1.02,2013-01-18 09:16:00,
2013-01-18 01:21:00,48.0,7.7,30.21,North,-999,0.0,4.0,19,0.00,,,-99.99,FreeWX-Wi 1.02,2013-01-18 09:21:00,
2013-01-18 01:26:00,47.5,7.3,30.21,North,-999,0.0,2.7,19,0.00,,,-99.99,FreeWX-Wi 1.02,2013-01-18 09:26:00,
2013-01-18 01:31:00,47.1,7.0,30.21,North,-999,0.0,2.7,19,0.00,,,-99.99,FreeWX-Wi 1.02,2013-01-18 09:31:00,
2013-01-18 01:36:00,46.4,6.4,30.21,North,-999,0.0,2.7,19,0.00,,,-99.99,FreeWX-Wi 1.02,2013-01-18 09:36:00,
2013-01-18 01:41:00,46.4,6.4,30.21,North,-999,0.0,3.1,19,0.00,,,-99.99,FreeWX-Wi 1.02,2013-01-18 09:41:00,
2013-01-18 01:46:00,46.0,7.2,30.18,North,-999,0.0,2.7,20,0.00,,,-99.99,FreeWX-Wi 1.02,2013-01-18 09:46:00,
2013-01-18 01:51:00,46.2,7.3,30.18,North,-999,0.0,2.7,20,0.00,,,-99.99,FreeWX-Wi 1.02,2013-01-18 09:51:00,
2013-01-18 01:56:00,46.2,7.3,30.18,North,-999,0.0,2.7,20,0.00,,,-99.99,FreeWX-Wi 1.02,2013-01-18 09:56:00,
2013-01-18 02:01:00,46.4,6.4,30.18,North,-999,0.0,3.1,19,0.00,,,-99.99,FreeWX-Wi 1.02,2013-01-18 10:01:00,
2013-01-18 02:06:00,46.4,6.4,30.18,North,-999,0.0,3.1,19,0.00,,,-99.99,FreeWX-Wi 1.02,2013-01-18 10:06:00,
2013-01-18 02:11:00,46.6,6.6,30.18,North,-999,0.0,2.2,19,0.00,,,-99.99,FreeWX-Wi 1.02,2013-01-18 10:11:00,
2013-01-18 02:16:00,46.4,6.4,30.18,North,-999,0.0,2.7,19,0.00,,,-99.99,FreeWX-Wi 1.02,2013-01-18 10:16:00,
2013-01-18 02:21:00,46.4,6.4,30.18,North,-999,0.0,2.7,19,0.00,,,-99.99,FreeWX-Wi 1.02,2013-01-18 10:21:00,
2013-01-18 02:26:00,46.0,7.2,30.18,ENE,72,1.0,4.0,20,0.00,,,-99.99,FreeWX-Wi 1.02,2013-01-18 10:26:00,
2013-01-18 02:31:00,47.3,7.2,30.18,ENE,72,1.0,3.6,19,0.00,,,-99.99,FreeWX-Wi 1.02,2013-01-18 10:31:00,
2013-01-18 02:36:00,50.2,9.5,30.18,ENE,62,1.0,5.8,19,0.00,,,-99.99,FreeWX-Wi 1.02,2013-01-18 10:36:00,
2013-01-18 02:41:00,51.1,12.6,30.18,NE,49,2.0,4.5,21,0.00,,,-99.99,FreeWX-Wi 1.02,2013-01-18 10:41:00,
2013-01-18 02:46:00,49.6,9.1,30.18,NE,34,1.0,3.1,19,0.00,,,-99.99,FreeWX-Wi 1.02,2013-01-18 10:46:00,
2013-01-18 02:51:00,48.4,8.1,30.18,NNE,21,1.0,5.4,19,0.00,,,-99.99,FreeWX-Wi 1.02,2013-01-18 10:51:00,
2013-01-18 02:56:00,47.7,7.5,30.18,North,9,1.0,3.1,19,0.00,,,-99.99,FreeWX-Wi 1.02,2013-01-18 10:56:00,
2013-01-18 03:01:00,47.7,7.5,30.18,North,1,1.0,4.9,19,0.00,,,-99.99,FreeWX-Wi 1.02,2013-01-18 11:01:00,
2013-01-18 03:06:00,47.5,7.3,30.18,North,-999,0.0,4.0,19,0.00,,,-99.99,FreeWX-Wi 1.02,2013-01-18 11:06:00,
2013-01-18 03:11:00,47.7,7.5,30.18,North,-999,0.0,4.0,19,0.00,,,-99.99,FreeWX-Wi 1.02,2013-01-18 11:11:00,
2013-01-18 03:16:00,47.7,7.5,30.15,North,-999,0.0,4.0,19,0.00,,,-99.99,FreeWX-Wi 1.02,2013-01-18 11:16:00,
2013-01-18 03:21:00,47.3,7.2,30.15,North,-999,0.0,3.1,19,0.00,,,-99.99,FreeWX-Wi 1.02,2013-01-18 11:21:00,
2013-01-18 03:26:00,46.8,6.8,30.15,North,-999,0.0,2.7,19,0.00,,,-99.99,FreeWX-Wi 1.02,2013-01-18 11:26:00,
2013-01-18 03:31:00,46.4,6.4,30.15,North,-999,0.0,3.6,19,0.00,,,-99.99,FreeWX-Wi 1.02,2013-01-18 11:31:00,
2013-01-18 03:36:00,46.2,7.3,30.15,North,-999,0.0,3.6,20,0.00,,,-99.99,FreeWX-Wi 1.02,2013-01-18 11:36:00,
2013-01-18 03:41:00,47.1,7.0,30.15,North,-999,0.0,4.0,19,0.00,,,-99.99,FreeWX-Wi 1.02,2013-01-18 11:41:00,
2013-01-18 03:46:00,46.8,6.8,30.18,North,-999,0.0,4.0,19,0.00,,,-99.99,FreeWX-Wi 1.02,2013-01-18 11:46:00,
2013-01-18 03:51:00,46.4,6.4,30.18,North,-999,0.0,3.1,19,0.00,,,-99.99,FreeWX-Wi 1.02,2013-01-18 11:51:00,
2013-01-18 03:56:00,46.0,7.2,30.18,North,7,1.0,2.7,20,0.00,,,-99.99,FreeWX-Wi 1.02,2013-01-18 11:56:00,
2013-01-18 04:01:00,46.0,7.2,30.15,North,7,1.0,3.1,20,0.00,,,-99.99,FreeWX-Wi 1.02,2013-01-18 12:01:00,
2013-01-18 04:06:00,46.8,6.8,30.15,North,-999,0.0,3.6,19,0.00,,,-99.99,FreeWX-Wi 1.02,2013-01-18 12:06:00,
2013-01-18 04:11:00,46.4,6.4,30.15,North,8,1.0,4.0,19,0.00,,,-99.99,FreeWX-Wi 1.02,2013-01-18 12:11:00,
2013-01-18 04:16:00,45.9,7.2,30.15,North,10,1.0,3.1,20,0.00,,,-99.99,FreeWX-Wi 1.02,2013-01-18 12:16:00,
2013-01-18 04:21:00,45.7,7.0,30.15,North,11,1.0,3.6,20,0.00,,,-99.99,FreeWX-Wi 1.02,2013-01-18 12:21:00,
2013-01-18 04:26:00,45.5,6.8,30.15,NNE,13,1.0,3.6,20,0.00,,,-99.99,FreeWX-Wi 1.02,2013-01-18 12:26:00,
2013-01-18 04:31:00,45.1,6.4,30.15,NNE,14,1.0,2.7,20,0.00,,,-99.99,FreeWX-Wi 1.02,2013-01-18 12:31:00,
2013-01-18 04:36:00,44.8,6.3,30.15,North,-999,0.0,0.0,20,0.00,,,-99.99,FreeWX-Wi 1.02,2013-01-18 12:36:00,
2013-01-18 04:41:00,45.3,6.6,30.15,North,-999,0.0,2.7,20,0.00,,,-99.99,FreeWX-Wi 1.02,2013-01-18 12:41:00,
2013-01-18 04:46:00,45.5,6.8,30.15,North,-999,0.0,3.6,20,0.00,,,-99.99,FreeWX-Wi 1.02,2013-01-18 12:46:00,
2013-01-18 04:51:00,45.1,6.4,30.15,North,-999,0.0,4.0,20,0.00,,,-99.99,FreeWX-Wi 1.02,2013-01-18 12:51:00,
2013-01-18 04:56:00,45.1,6.4,30.15,North,-999,0.0,4.0,20,0.00,,,-99.99,FreeWX-Wi 1.02,2013-01-18 12:56:00,
2013-01-18 05:01:00,45.0,6.3,30.15,North,-999,0.0,4.0,20,0.00,,,-99.99,FreeWX-Wi 1.02,2013-01-18 13:01:00,
2013-01-18 05:06:00,45.1,6.4,30.15,NNE,16,1.0,3.1,20,0.00,,,-99.99,FreeWX-Wi 1.02,2013-01-18 13:06:00,
2013-01-18 05:11:00,45.1,6.4,30.15,NNE,16,1.0,4.9,20,0.00,,,-99.99,FreeWX-Wi 1.02,2013-01-18 13:11:00,
2013-01-18 05:16:00,45.1,6.4,30.15,NNE,16,1.0,3.6,20,0.00,,,-99.99,FreeWX-Wi 1.02,2013-01-18 13:16:00,
2013-01-18 05:21:00,45.1,6.4,30.15,NNE,16,1.0,3.6,20,0.00,,,-99.99,FreeWX-Wi 1.02,2013-01-18 13:21:00,
2013-01-18 05:26:00,45.3,6.6,30.15,NNE,19,2.0,5.8,20,0.00,,,-99.99,FreeWX-Wi 1.02,2013-01-18 13:26:00,
2013-01-18 05:31:00,45.9,7.2,30.15,NNE,26,2.0,4.0,20,0.00,,,-99.99,FreeWX-Wi 1.02,2013-01-18 13:31:00,
2013-01-18 05:36:00,45.9,7.2,30.15,NE,35,2.0,4.9,20,0.00,,,-99.99,FreeWX-Wi 1.02,2013-01-18 13:36:00,
2013-01-18 05:41:00,45.3,6.6,30.15,NE,44,2.0,3.6,20,0.00,,,-99.99,FreeWX-Wi 1.02,2013-01-18 13:41:00,
2013-01-18 05:46:00,45.0,6.3,30.15,NE,54,2.0,4.0,20,0.00,,,-99.99,FreeWX-Wi 1.02,2013-01-18 13:46:00,
2013-01-18 05:51:00,44.8,6.3,30.15,ENE,62,2.0,4.9,20,0.00,,,-99.99,FreeWX-Wi 1.02,2013-01-18 13:51:00,
2013-01-18 05:56:00,45.0,6.3,30.15,ENE,68,2.0,4.0,20,0.00,,,-99.99,FreeWX-Wi 1.02,2013-01-18 13:56:00,
2013-01-18 06:01:00,45.3,6.6,30.15,ENE,68,2.0,3.6,20,0.00,,,-99.99,FreeWX-Wi 1.02,2013-01-18 14:01:00,
2013-01-18 06:06:00,45.3,6.6,30.15,ENE,68,2.0,3.1,20,0.00,,,-99.99,FreeWX-Wi 1.02,2013-01-18 14:06:00,
2013-01-18 06:11:00,44.8,6.3,30.15,ENE,67,2.0,3.6,20,0.00,,,-99.99,FreeWX-Wi 1.02,2013-01-18 14:11:00,
2013-01-18 06:16:00,44.8,6.3,30.18,ENE,67,2.0,5.4,20,0.00,,,-99.99,FreeWX-Wi 1.02,2013-01-18 14:16:00,
2013-01-18 06:21:00,45.3,6.6,30.18,ENE,65,2.0,4.0,20,0.00,,,-99.99,FreeWX-Wi 1.02,2013-01-18 14:21:00,
2013-01-18 06:26:00,45.5,6.8,30.18,ENE,64,2.0,3.6,20,0.00,,,-99.99,FreeWX-Wi 1.02,2013-01-18 14:26:00,
2013-01-18 06:31:00,45.5,6.8,30.18,ENE,62,2.0,4.0,20,0.00,,,-99.99,FreeWX-Wi 1.02,2013-01-18 14:31:00,
2013-01-18 06:36:00,45.9,7.2,30.18,ENE,61,2.0,4.9,20,0.00,,,-99.99,FreeWX-Wi 1.02,2013-01-18 14:36:00,
2013-01-18 06:41:00,47.5,7.3,30.18,NE,56,3.0,6.3,19,0.00,,,-99.99,FreeWX-Wi 1.02,2013-01-18 14:41:00,
2013-01-18 06:46:00,51.1,10.2,30.18,NE,51,3.0,5.4,19,0.00,,,-99.99,FreeWX-Wi 1.02,2013-01-18 14:46:00,
2013-01-18 06:51:00,52.9,14.0,30.18,NE,45,3.0,8.1,21,0.00,,,-99.99,FreeWX-Wi 1.02,2013-01-18 14:51:00,
2013-01-18 06:56:00,55.0,14.7,30.18,NE,38,4.0,8.3,20,0.00,,,-99.99,FreeWX-Wi 1.02,2013-01-18 14:56:00,
2013-01-18 07:01:00,55.6,15.1,30.18,NNE,30,4.0,6.7,20,0.00,,,-99.99,FreeWX-Wi 1.02,2013-01-18 15:01:00,
2013-01-18 07:06:00,55.0,14.7,30.18,NNE,23,4.0,5.8,20,0.00,,,-99.99,FreeWX-Wi 1.02,2013-01-18 15:06:00,
2013-01-18 07:11:00,53.6,13.5,30.18,NNE,20,4.0,7.6,20,0.00,,,-99.99,FreeWX-Wi 1.02,2013-01-18 15:11:00,
2013-01-18 07:16:00,53.1,14.2,30.18,NNE,22,3.0,3.1,21,0.00,,,-99.99,FreeWX-Wi 1.02,2013-01-18 15:16:00,
2013-01-18 07:21:00,51.8,13.1,30.18,NNE,24,2.0,4.0,21,0.00,,,-99.99,FreeWX-Wi 1.02,2013-01-18 15:21:00,
2013-01-18 07:26:00,51.6,12.9,30.18,NNE,29,2.0,5.8,21,0.00,,,-99.99,FreeWX-Wi 1.02,2013-01-18 15:26:00,
2013-01-18 07:31:00,52.2,13.5,30.21,NE,37,2.0,4.5,21,0.00,,,-99.99,FreeWX-Wi 1.02,2013-01-18 15:31:00,
2013-01-18 07:36:00,53.1,14.2,30.21,NE,45,2.0,3.6,21,0.00,,,-99.99,FreeWX-Wi 1.02,2013-01-18 15:36:00,
2013-01-18 07:42:00,53.2,14.4,30.21,NE,50,1.0,3.1,21,0.00,,,-99.99,FreeWX-Wi 1.02,2013-01-18 15:42:00,
2013-01-18 07:47:00,53.6,13.5,30.21,NE,55,1.0,2.7,20,0.00,,,-99.99,FreeWX-Wi 1.02,2013-01-18 15:47:00,
2013-01-18 07:52:00,53.4,14.5,30.21,ENE,62,1.0,4.0,21,0.00,,,-99.99,FreeWX-Wi 1.02,2013-01-18 15:52:00,
2013-01-18 07:57:00,53.2,14.4,30.21,North,-999,0.0,2.2,21,0.00,,,-99.99,FreeWX-Wi 1.02,2013-01-18 15:57:00,
2013-01-18 08:02:00,53.4,14.5,30.21,North,-999,0.0,2.7,21,0.00,,,-99.99,FreeWX-Wi 1.02,2013-01-18 16:02:00,
2013-01-18 08:07:00,54.3,14.2,30.21,ENE,71,1.0,5.4,20,0.00,,,-99.99,FreeWX-Wi 1.02,2013-01-18 16:07:00,
2013-01-18 08:12:00,56.7,16.0,30.21,ENE,66,1.0,7.6,20,0.00,,,-99.99,FreeWX-Wi 1.02,2013-01-18 16:12:00,
2013-01-18 08:17:00,57.2,15.3,30.21,ENE,63,1.0,3.1,19,0.00,,,-99.99,FreeWX-Wi 1.02,2013-01-18 16:17:00,
2013-01-18 08:22:00,57.7,15.8,30.21,ENE,57,1.0,3.1,19,0.00,,,-99.99,FreeWX-Wi 1.02,2013-01-18 16:22:00,
2013-01-18 08:27:00,57.6,15.6,30.21,NE,53,1.0,4.0,19,0.00,,,-99.99,FreeWX-Wi 1.02,2013-01-18 16:27:00,
2013-01-18 08:32:00,57.7,15.8,30.21,NE,50,1.0,2.7,19,0.00,,,-99.99,FreeWX-Wi 1.02,2013-01-18 16:32:00,
2013-01-18 08:37:00,57.6,15.6,30.21,NE,49,1.0,0.0,19,0.00,,,-99.99,FreeWX-Wi 1.02,2013-01-18 16:37:00,
2013-01-18 08:42:00,58.1,16.2,30.21,North,-999,0.0,2.7,19,0.00,,,-99.99,FreeWX-Wi 1.02,2013-01-18 16:42:00,
2013-01-18 08:47:00,58.5,16.3,30.21,North,-999,0.0,2.7,19,0.00,,,-99.99,FreeWX-Wi 1.02,2013-01-18 16:47:00,
2013-01-18 08:52:00,58.8,16.7,30.21,North,-999,0.0,0.0,19,0.00,,,-99.99,FreeWX-Wi 1.02,2013-01-18 16:52:00,
2013-01-18 08:57:00,59.0,16.9,30.21,North,-999,0.0,0.0,19,0.00,,,-99.99,FreeWX-Wi 1.02,2013-01-18 16:57:00,
2013-01-18 09:02:00,59.4,17.1,30.21,North,-999,0.0,2.2,19,0.00,,,-99.99,FreeWX-Wi 1.02,2013-01-18 17:02:00,
2013-01-18 09:07:00,59.9,17.6,30.21,North,-999,0.0,0.0,19,0.00,,,-99.99,FreeWX-Wi 1.02,2013-01-18 17:07:00,
2013-01-18 09:12:00,60.3,17.8,30.21,North,-999,0.0,0.0,19,0.00,,,-99.99,FreeWX-Wi 1.02,2013-01-18 17:12:00,
2013-01-18 09:17:00,60.6,18.1,30.21,North,-999,0.0,2.2,19,0.00,,,-99.99,FreeWX-Wi 1.02,2013-01-18 17:17:00,
2013-01-18 09:22:00,61.5,18.9,30.21,North,-999,0.0,4.0,19,0.00,,,-99.99,FreeWX-Wi 1.02,2013-01-18 17:22:00,
2013-01-18 09:27:00,62.2,19.4,30.21,North,-999,0.0,3.1,19,0.00,,,-99.99,FreeWX-Wi 1.02,2013-01-18 17:27:00,
2013-01-18 09:32:00,62.4,19.6,30.21,North,-999,0.0,3.6,19,0.00,,,-99.99,FreeWX-Wi 1.02,2013-01-18 17:32:00,
2013-01-18 09:37:00,63.0,18.9,30.21,ENE,60,1.0,4.0,18,0.00,,,-99.99,FreeWX-Wi 1.02,2013-01-18 17:37:00,
2013-01-18 09:42:00,63.0,18.9,30.21,ENE,60,1.0,2.7,18,0.00,,,-99.99,FreeWX-Wi 1.02,2013-01-18 17:42:00,
2013-01-18 09:47:00,63.1,19.0,30.24,ENE,60,1.0,3.6,18,0.00,,,-99.99,FreeWX-Wi 1.02,2013-01-18 17:47:00,
2013-01-18 09:52:00,63.3,19.0,30.24,ENE,60,1.0,3.6,18,0.00,,,-99.99,FreeWX-Wi 1.02,2013-01-18 17:52:00,
2013-01-18 09:57:00,63.7,19.4,30.24,ENE,60,1.0,3.1,18,0.00,,,-99.99,FreeWX-Wi 1.02,2013-01-18 17:57:00,
2013-01-18 10:02:00,64.0,19.8,30.21,ENE,60,1.0,3.1,18,0.00,,,-99.99,FreeWX-Wi 1.02,2013-01-18 18:02:00,
2013-01-18 10:07:00,64.0,19.8,30.21,North,-999,0.0,0.0,18,0.00,,,-99.99,FreeWX-Wi 1.02,2013-01-18 18:07:00,
2013-01-18 10:12:00,64.8,20.3,30.21,North,-999,0.0,3.1,18,0.00,,,-99.99,FreeWX-Wi 1.02,2013-01-18 18:12:00,
2013-01-18 10:17:00,65.1,20.5,30.21,North,-999,0.0,2.7,18,0.00,,,-99.99,FreeWX-Wi 1.02,2013-01-18 18:17:00,
2013-01-18 10:22:00,65.8,21.2,30.21,North,-999,0.0,4.9,18,0.00,,,-99.99,FreeWX-Wi 1.02,2013-01-18 18:22:00,
2013-01-18 10:27:00,66.0,21.4,30.21,North,-999,0.0,3.6,18,0.00,,,-99.99,FreeWX-Wi 1.02,2013-01-18 18:27:00,
2013-01-18 10:32:00,66.4,20.3,30.21,ENE,63,1.0,4.0,17,0.00,,,-99.99,FreeWX-Wi 1.02,2013-01-18 18:32:00,
2013-01-18 10:37:00,66.7,20.5,30.21,ENE,64,1.0,4.0,17,0.00,,,-99.99,FreeWX-Wi 1.02,2013-01-18 18:37:00,
2013-01-18 10:42:00,67.1,20.8,30.21,ENE,64,1.0,4.9,17,0.00,,,-99.99,FreeWX-Wi 1.02,2013-01-18 18:42:00,
2013-01-18 10:47:00,67.1,20.8,30.21,ENE,63,2.0,4.9,17,0.00,,,-99.99,FreeWX-Wi 1.02,2013-01-18 18:47:00,
2013-01-18 10:52:00,67.1,20.8,30.21,ENE,57,2.0,4.9,17,0.00,,,-99.99,FreeWX-Wi 1.02,2013-01-18 18:52:00,
2013-01-18 10:57:00,67.3,21.0,30.21,NE,43,2.0,4.0,17,0.00,,,-99.99,FreeWX-Wi 1.02,2013-01-18 18:57:00,
2013-01-18 11:02:00,68.0,21.6,30.21,North,5,2.0,5.8,17,0.00,,,-99.99,FreeWX-Wi 1.02,2013-01-18 19:02:00,
2013-01-18 11:07:00,68.5,21.9,30.21,NW,307,2.0,4.0,17,0.00,,,-99.99,FreeWX-Wi 1.02,2013-01-18 19:07:00,
2013-01-18 11:12:00,68.7,22.1,30.21,West,281,2.0,4.0,17,0.00,,,-99.99,FreeWX-Wi 1.02,2013-01-18 19:12:00,
2013-01-18 11:17:00,69.1,22.5,30.18,West,269,2.0,4.0,17,0.00,,,-99.99,FreeWX-Wi 1.02,2013-01-18 19:17:00,
2013-01-18 11:22:00,69.3,22.6,30.18,West,265,1.0,4.0,17,0.00,,,-99.99,FreeWX-Wi 1.02,2013-01-18 19:22:00,
2013-01-18 11:27:00,69.4,22.8,30.18,West,263,1.0,5.4,17,0.00,,,-99.99,FreeWX-Wi 1.02,2013-01-18 19:27:00,
2013-01-18 11:32:00,69.8,23.0,30.18,West,261,2.0,5.8,17,0.00,,,-99.99,FreeWX-Wi 1.02,2013-01-18 19:32:00,
2013-01-18 11:37:00,70.0,23.2,30.18,West,259,1.0,4.0,17,0.00,,,-99.99,FreeWX-Wi 1.02,2013-01-18 19:37:00,
2013-01-18 11:42:00,70.5,23.5,30.18,WSW,257,2.0,4.0,17,0.00,,,-99.99,FreeWX-Wi 1.02,2013-01-18 19:42:00,
2013-01-18 11:47:00,71.1,24.1,30.18,WSW,255,1.0,4.0,17,0.00,,,-99.99,FreeWX-Wi 1.02,2013-01-18 19:47:00,
2013-01-18 11:52:00,71.4,24.3,30.18,WSW,254,2.0,5.8,17,0.00,,,-99.99,FreeWX-Wi 1.02,2013-01-18 19:52:00,
2013-01-18 11:57:00,71.2,24.3,30.18,WSW,252,2.0,4.9,17,0.00,,,-99.99,FreeWX-Wi 1.02,2013-01-18 19:57:00,
2013-01-18 12:02:00,71.6,23.0,30.18,WSW,250,2.0,4.9,16,0.00,,,-99.99,FreeWX-Wi 1.02,2013-01-18 20:02:00,
2013-01-18 12:07:00,71.6,23.0,30.18,WSW,249,2.0,4.0,16,0.00,,,-99.99,FreeWX-Wi 1.02,2013-01-18 20:07:00,
2013-01-18 12:12:00,72.3,23.5,30.18,WSW,248,2.0,4.0,16,0.00,,,-99.99,FreeWX-Wi 1.02,2013-01-18 20:12:00,
2013-01-18 12:17:00,72.5,23.7,30.15,WSW,243,2.0,6.7,16,0.00,,,-99.99,FreeWX-Wi 1.02,2013-01-18 20:17:00,
2013-01-18 12:22:00,72.7,23.9,30.15,SW,236,3.0,7.6,16,0.00,,,-99.99,FreeWX-Wi 1.02,2013-01-18 20:22:00,
2013-01-18 12:27:00,73.0,24.3,30.15,SW,229,3.0,4.0,16,0.00,,,-99.99,FreeWX-Wi 1.02,2013-01-18 20:27:00,
2013-01-18 12:32:00,73.2,24.3,30.15,SW,225,3.0,7.6,16,0.00,,,-99.99,FreeWX-Wi 1.02,2013-01-18 20:32:00,
2013-01-18 12:37:00,73.6,24.6,30.15,SW,221,3.0,6.3,16,0.00,,,-99.99,FreeWX-Wi 1.02,2013-01-18 20:37:00,
2013-01-18 12:42:00,73.6,24.6,30.15,SW,218,3.0,6.3,16,0.00,,,-99.99,FreeWX-Wi 1.02,2013-01-18 20:42:00,
2013-01-18 12:47:00,73.8,24.8,30.15,SW,222,3.0,5.4,16,0.00,,,-99.99,FreeWX-Wi 1.02,2013-01-18 20:47:00,
2013-01-18 12:52:00,73.6,24.6,30.15,SW,227,3.0,4.9,16,0.00,,,-99.99,FreeWX-Wi 1.02,2013-01-18 20:52:00,
2013-01-18 12:57:00,73.9,25.0,30.15,SW,230,3.0,5.8,16,0.00,,,-99.99,FreeWX-Wi 1.02,2013-01-18 20:57:00,
2013-01-18 13:02:00,73.9,25.0,30.15,SW,230,3.0,4.9,16,0.00,,,-99.99,FreeWX-Wi 1.02,2013-01-18 21:02:00,
2013-01-18 13:07:00,74.3,25.2,30.15,SW,233,3.0,5.8,16,0.00,,,-99.99,FreeWX-Wi 1.02,2013-01-18 21:07:00,
2013-01-18 13:12:00,74.5,25.3,30.15,SW,233,3.0,6.3,16,0.00,,,-99.99,FreeWX-Wi 1.02,2013-01-18 21:12:00,
2013-01-18 13:17:00,74.7,25.5,30.15,SW,231,3.0,6.3,16,0.00,,,-99.99,FreeWX-Wi 1.02,2013-01-18 21:17:00,
2013-01-18 13:22:00,75.2,24.4,30.15,SW,228,3.0,6.3,15,0.00,,,-99.99,FreeWX-Wi 1.02,2013-01-18 21:22:00,
2013-01-18 13:27:00,75.6,24.6,30.15,SW,221,3.0,5.8,15,0.00,,,-99.99,FreeWX-Wi 1.02,2013-01-18 21:27:00,
2013-01-18 13:32:00,75.6,24.6,30.15,SSW,208,3.0,5.8,15,0.00,,,-99.99,FreeWX-Wi 1.02,2013-01-18 21:32:00,
2013-01-18 13:37:00,75.0,25.7,30.15,SSW,210,3.0,5.8,16,0.00,,,-99.99,FreeWX-Wi 1.02,2013-01-18 21:37:00,
2013-01-18 13:42:00,74.5,25.3,30.15,SW,215,3.0,6.3,16,0.00,,,-99.99,FreeWX-Wi 1.02,2013-01-18 21:42:00,
2013-01-18 13:47:00,74.8,25.7,30.15,SW,218,3.0,7.6,16,0.00,,,-99.99,FreeWX-Wi 1.02,2013-01-18 21:47:00,
2013-01-18 13:52:00,75.2,24.4,30.15,SW,225,3.0,8.1,15,0.00,,,-99.99,FreeWX-Wi 1.02,2013-01-18 21:52:00,
2013-01-18 13:57:00,75.6,24.6,30.15,SW,235,3.0,6.3,15,0.00,,,-99.99,FreeWX-Wi 1.02,2013-01-18 21:57:00,
2013-01-18 14:02:00,75.6,24.6,30.15,WSW,240,3.0,6.7,15,0.00,,,-99.99,FreeWX-Wi 1.02,2013-01-18 22:02:00,
2013-01-18 14:07:00,75.7,24.8,30.15,SW,229,4.0,5.8,15,0.00,,,-99.99,FreeWX-Wi 1.02,2013-01-18 22:07:00,
2013-01-18 14:12:00,75.4,24.4,30.15,SSW,209,3.0,4.0,15,0.00,,,-99.99,FreeWX-Wi 1.02,2013-01-18 22:12:00,
2013-01-18 14:17:00,75.4,24.4,30.15,SSW,201,3.0,7.6,15,0.00,,,-99.99,FreeWX-Wi 1.02,2013-01-18 22:17:00,
2013-01-18 14:22:00,75.4,24.4,30.15,SSW,205,3.0,6.3,15,0.00,,,-99.99,FreeWX-Wi 1.02,2013-01-18 22:22:00,
2013-01-18 14:27:00,75.7,24.8,30.15,SSW,212,3.0,6.3,15,0.00,,,-99.99,FreeWX-Wi 1.02,2013-01-18 22:27:00,
2013-01-18 14:32:00,75.7,24.8,30.15,SW,218,3.0,4.9,15,0.00,,,-99.99,FreeWX-Wi 1.02,2013-01-18 22:32:00,
2013-01-18 14:37:00,75.7,24.8,30.15,SW,232,3.0,4.0,15,0.00,,,-99.99,FreeWX-Wi 1.02,2013-01-18 22:37:00,
2013-01-18 14:42:00,75.4,24.4,30.15,WSW,242,2.0,4.0,15,0.00,,,-99.99,FreeWX-Wi 1.02,2013-01-18 22:42:00,
2013-01-18 14:47:00,75.7,24.8,30.15,WSW,240,3.0,6.7,15,0.00,,,-99.99,FreeWX-Wi 1.02,2013-01-18 22:47:00,
2013-01-18 14:52:00,76.3,25.2,30.15,SW,229,3.0,8.1,15,0.00,,,-99.99,FreeWX-Wi 1.02,2013-01-18 22:52:00,
2013-01-18 14:57:00,76.3,25.2,30.15,SW,224,3.0,6.3,15,0.00,,,-99.99,FreeWX-Wi 1.02,2013-01-18 22:57:00,
2013-01-18 15:02:00,75.9,25.0,30.12,SW,215,3.0,5.4,15,0.00,,,-99.99,FreeWX-Wi 1.02,2013-01-18 23:02:00,
2013-01-18 15:07:00,75.4,24.4,30.12,SW,216,3.0,6.3,15,0.00,,,-99.99,FreeWX-Wi 1.02,2013-01-18 23:07:00,
2013-01-18 15:12:00,75.4,24.4,30.12,SW,217,4.0,6.3,15,0.00,,,-99.99,FreeWX-Wi 1.02,2013-01-18 23:12:00,
2013-01-18 15:17:00,75.4,24.4,30.15,SW,228,3.0,5.8,15,0.00,,,-99.99,FreeWX-Wi 1.02,2013-01-18 23:17:00,
2013-01-18 15:22:00,75.2,24.4,30.15,SW,233,3.0,5.8,15,0.00,,,-99.99,FreeWX-Wi 1.02,2013-01-18 23:22:00,
2013-01-18 15:27:00,75.0,25.7,30.15,SW,234,3.0,5.4,16,0.00,,,-99.99,FreeWX-Wi 1.02,2013-01-18 23:27:00,
2013-01-18 15:32:00,74.8,25.7,30.15,SW,234,4.0,5.4,16,0.00,,,-99.99,FreeWX-Wi 1.02,2013-01-18 23:32:00,
2013-01-18 15:37:00,74.3,25.2,30.15,SW,227,3.0,4.9,16,0.00,,,-99.99,FreeWX-Wi 1.02,2013-01-18 23:37:00,
2013-01-18 15:42:00,73.0,24.3,30.15,SW,219,2.0,3.1,16,0.00,,,-99.99,FreeWX-Wi 1.02,2013-01-18 23:42:00,
2013-01-18 15:47:00,72.3,23.5,30.12,SSW,212,2.0,4.0,16,0.00,,,-99.99,FreeWX-Wi 1.02,2013-01-18 23:47:00,
2013-01-18 15:52:00,71.8,23.2,30.12,SSW,208,2.0,4.5,16,0.00,,,-99.99,FreeWX-Wi 1.02,2013-01-18 23:52:00,
2013-01-18 15:57:00,70.9,23.9,30.12,SSW,208,1.0,3.1,17,0.00,,,-99.99,FreeWX-Wi 1.02,2013-01-18 23:57:00,
2013-01-18 16:02:00,70.0,23.2,30.15,SSW,209,1.0,3.1,17,0.00,,,-99.99,FreeWX-Wi 1.02,2013-01-19 00:02:00,
2013-01-18 16:07:00,69.3,22.6,30.15,SSW,209,1.0,0.0,17,0.00,,,-99.99,FreeWX-Wi 1.02,2013-01-19 00:07:00,
2013-01-18 16:12:00,68.4,21.9,30.15,SSW,210,1.0,0.0,17,0.00,,,-99.99,FreeWX-Wi 1.02,2013-01-19 00:12:00,
2013-01-18 16:17:00,67.6,21.2,30.15,North,-999,0.0,0.0,17,0.00,,,-99.99,FreeWX-Wi 1.02,2013-01-19 00:17:00,
2013-01-18 16:22:00,67.1,20.8,30.15,North,-999,0.0,0.0,17,0.00,,,-99.99,FreeWX-Wi 1.02,2013-01-19 00:22:00,
2013-01-18 16:27:00,66.4,20.3,30.15,North,-999,0.0,0.0,17,0.00,,,-99.99,FreeWX-Wi 1.02,2013-01-19 00:27:00,
2013-01-18 16:32:00,66.2,20.1,30.15,North,-999,0.0,5.8,17,0.00,,,-99.99,FreeWX-Wi 1.02,2013-01-19 00:32:00,
2013-01-18 16:37:00,66.7,20.5,30.15,North,-999,0.0,5.4,17,0.00,,,-99.99,FreeWX-Wi 1.02,2013-01-19 00:37:00,
2013-01-18 16:42:00,66.6,20.5,30.15,WSW,258,1.0,3.1,17,0.00,,,-99.99,FreeWX-Wi 1.02,2013-01-19 00:42:00,
2013-01-18 16:47:00,65.8,21.2,30.15,NW,313,1.0,3.6,18,0.00,,,-99.99,FreeWX-Wi 1.02,2013-01-19 00:47:00,
2013-01-18 16:52:00,64.8,20.3,30.15,NNW,343,1.0,3.1,18,0.00,,,-99.99,FreeWX-Wi 1.02,2013-01-19 00:52:00,
2013-01-18 16:57:00,64.0,19.8,30.15,North,354,1.0,0.0,18,0.00,,,-99.99,FreeWX-Wi 1.02,2013-01-19 00:57:00,
2013-01-18 17:02:00,63.7,19.4,30.15,North,359,1.0,4.0,18,0.00,,,-99.99,FreeWX-Wi 1.02,2013-01-19 01:02:00,
2013-01-18 17:07:00,64.2,19.8,30.15,North,5,1.0,8.1,18,0.00,,,-99.99,FreeWX-Wi 1.02,2013-01-19 01:07:00,
2013-01-18 17:12:00,64.2,19.8,30.15,NNE,13,1.0,5.8,18,0.00,,,-99.99,FreeWX-Wi 1.02,2013-01-19 01:12:00,
2013-01-18 17:17:00,64.8,20.3,30.15,NNE,17,2.0,6.3,18,0.00,,,-99.99,FreeWX-Wi 1.02,2013-01-19 01:17:00,
2013-01-18 17:22:00,65.3,20.7,30.15,NNE,20,3.0,6.3,18,0.00,,,-99.99,FreeWX-Wi 1.02,2013-01-19 01:22:00,
2013-01-18 17:27:00,65.1,20.5,30.15,NNE,23,4.0,8.3,18,0.00,,,-99.99,FreeWX-Wi 1.02,2013-01-19 01:27:00,
2013-01-18 17:32:00,64.6,20.1,30.15,NNE,24,4.0,6.3,18,0.00,,,-99.99,FreeWX-Wi 1.02,2013-01-19 01:32:00,
2013-01-18 17:37:00,64.6,20.1,30.15,NNE,21,4.0,7.6,18,0.00,,,-99.99,FreeWX-Wi 1.02,2013-01-19 01:37:00,
2013-01-18 17:42:00,64.8,20.3,30.15,NNE,18,5.0,10.1,18,0.00,,,-99.99,FreeWX-Wi 1.02,2013-01-19 01:42:00,
2013-01-18 17:47:00,64.4,19.9,30.15,NNE,21,5.0,8.7,18,0.00,,,-99.99,FreeWX-Wi 1.02,2013-01-19 01:47:00,
2013-01-18 17:52:00,64.2,19.8,30.15,NNE,24,5.0,8.7,18,0.00,,,-99.99,FreeWX-Wi 1.02,2013-01-19 01:52:00,
2013-01-18 17:57:00,64.0,19.8,30.15,NNE,28,5.0,8.1,18,0.00,,,-99.99,FreeWX-Wi 1.02,2013-01-19 01:57:00,
2013-01-18 18:02:00,63.3,19.0,30.15,NE,35,5.0,6.7,18,0.00,,,-99.99,FreeWX-Wi 1.02,2013-01-19 02:02:00,
2013-01-18 18:07:00,62.6,18.5,30.15,NE,39,5.0,6.3,18,0.00,,,-99.99,FreeWX-Wi 1.02,2013-01-19 02:07:00,
2013-01-18 18:12:00,61.9,19.2,30.15,NE,42,4.0,4.0,19,0.00,,,-99.99,FreeWX-Wi 1.02,2013-01-19 02:12:00,
2013-01-18 18:17:00,60.6,18.1,30.15,NE,44,4.0,4.0,19,0.00,,,-99.99,FreeWX-Wi 1.02,2013-01-19 02:17:00,
2013-01-18 18:22:00,60.3,17.8,30.15,NE,50,3.0,4.0,19,0.00,,,-99.99,FreeWX-Wi 1.02,2013-01-19 02:22:00,
2013-01-18 18:27:00,60.8,18.3,30.15,NE,48,3.0,6.7,19,0.00,,,-99.99,FreeWX-Wi 1.02,2013-01-19 02:27:00,
2013-01-18 18:32:00,60.6,18.1,30.15,NE,45,2.0,4.0,19,0.00,,,-99.99,FreeWX-Wi 1.02,2013-01-19 02:32:00,
2013-01-18 18:37:00,60.3,17.8,30.15,NE,45,2.0,4.0,19,0.00,,,-99.99,FreeWX-Wi 1.02,2013-01-19 02:37:00,
2013-01-18 18:42:00,60.3,17.8,30.15,NE,44,3.0,5.4,19,0.00,,,-99.99,FreeWX-Wi 1.02,2013-01-19 02:42:00,
2013-01-18 18:47:00,60.1,17.8,30.15,NE,45,3.0,5.8,19,0.00,,,-99.99,FreeWX-Wi 1.02,2013-01-19 02:47:00,
2013-01-18 18:52:00,61.7,19.0,30.15,NE,40,3.0,6.7,19,0.00,,,-99.99,FreeWX-Wi 1.02,2013-01-19 02:52:00,
2013-01-18 18:57:00,61.9,19.2,30.15,NE,37,3.0,7.6,19,0.00,,,-99.99,FreeWX-Wi 1.02,2013-01-19 02:57:00,
2013-01-18 19:02:00,62.1,19.4,30.18,NE,34,4.0,8.1,19,0.00,,,-99.99,FreeWX-Wi 1.02,2013-01-19 03:02:00,
2013-01-18 19:07:00,62.2,19.4,30.18,NNE,31,4.0,8.1,19,0.00,,,-99.99,FreeWX-Wi 1.02,2013-01-19 03:07:00,
2013-01-18 19:12:00,61.5,18.9,30.18,NNE,30,5.0,8.3,19,0.00,,,-99.99,FreeWX-Wi 1.02,2013-01-19 03:12:00,
2013-01-18 19:17:00,61.5,18.9,30.18,NNE,27,5.0,8.7,19,0.00,,,-99.99,FreeWX-Wi 1.02,2013-01-19 03:17:00,
2013-01-18 19:22:00,61.7,19.0,30.18,NNE,27,6.0,10.5,19,0.00,,,-99.99,FreeWX-Wi 1.02,2013-01-19 03:22:00,
2013-01-18 19:27:00,60.8,18.3,30.18,NNE,32,5.0,6.3,19,0.00,,,-99.99,FreeWX-Wi 1.02,2013-01-19 03:27:00,
2013-01-18 19:32:00,61.2,18.5,30.18,NNE,32,5.0,10.1,19,0.00,,,-99.99,FreeWX-Wi 1.02,2013-01-19 03:32:00,
2013-01-18 19:37:00,61.7,19.0,30.18,NNE,30,6.0,10.5,19,0.00,,,-99.99,FreeWX-Wi 1.02,2013-01-19 03:37:00,
2013-01-18 19:42:00,62.1,19.4,30.18,NNE,29,6.0,12.8,19,0.00,,,-99.99,FreeWX-Wi 1.02,2013-01-19 03:42:00,
2013-01-18 19:47:00,62.1,19.4,30.18,NNE,28,6.0,11.0,19,0.00,,,-99.99,FreeWX-Wi 1.02,2013-01-19 03:47:00,
2013-01-18 19:52:00,61.9,19.2,30.18,NNE,26,6.0,8.7,19,0.00,,,-99.99,FreeWX-Wi 1.02,2013-01-19 03:52:00,
2013-01-18 19:57:00,61.7,19.0,30.18,NNE,19,6.0,8.7,19,0.00,,,-99.99,FreeWX-Wi 1.02,2013-01-19 03:57:00,
2013-01-18 20:02:00,61.3,18.7,30.18,NNE,14,6.0,8.7,19,0.00,,,-99.99,FreeWX-Wi 1.02,2013-01-19 04:02:00,
2013-01-18 20:07:00,59.9,17.6,30.18,North,9,5.0,5.8,19,0.00,,,-99.99,FreeWX-Wi 1.02,2013-01-19 04:07:00,
2013-01-18 20:12:00,59.7,17.4,30.18,North,3,4.0,4.9,19,0.00,,,-99.99,FreeWX-Wi 1.02,2013-01-19 04:12:00,
2013-01-18 20:17:00,59.4,17.1,30.18,North,357,4.0,7.6,19,0.00,,,-99.99,FreeWX-Wi 1.02,2013-01-19 04:17:00,
2013-01-18 20:22:00,59.4,17.1,30.18,North,354,3.0,4.9,19,0.00,,,-99.99,FreeWX-Wi 1.02,2013-01-19 04:22:00,
2013-01-18 20:27:00,59.4,17.1,30.18,North,351,2.0,5.4,19,0.00,,,-99.99,FreeWX-Wi 1.02,2013-01-19 04:27:00,
2013-01-18 20:32:00,58.5,16.3,30.18,North,352,2.0,4.9,19,0.00,,,-99.99,FreeWX-Wi 1.02,2013-01-19 04:32:00,
2013-01-18 20:37:00,59.0,16.9,30.18,North,355,2.0,5.8,19,0.00,,,-99.99,FreeWX-Wi 1.02,2013-01-19 04:37:00,
2013-01-18 20:42:00,60.6,18.1,30.18,North,359,3.0,10.1,19,0.00,,,-99.99,FreeWX-Wi 1.02,2013-01-19 04:42:00,
2013-01-18 20:47:00,61.3,18.7,30.18,North,5,3.0,9.6,19,0.00,,,-99.99,FreeWX-Wi 1.02,2013-01-19 04:47:00,
2013-01-18 20:52:00,61.3,18.7,30.18,North,9,4.0,11.4,19,0.00,,,-99.99,FreeWX-Wi 1.02,2013-01-19 04:52:00,
2013-01-18 20:57:00,61.7,19.0,30.18,NNE,16,5.0,10.1,19,0.00,,,-99.99,FreeWX-Wi 1.02,2013-01-19 04:57:00,
2013-01-18 21:02:00,61.3,18.7,30.18,NNE,22,6.0,11.9,19,0.00,,,-99.99,FreeWX-Wi 1.02,2013-01-19 05:02:00,
2013-01-18 21:08:00,61.0,18.5,30.18,NNE,22,7.0,9.2,19,0.00,,,-99.99,FreeWX-Wi 1.02,2013-01-19 05:08:00,
2013-01-18 21:13:00,61.5,18.9,30.18,NNE,23,7.0,10.1,19,0.00,,,-99.99,FreeWX-Wi 1.02,2013-01-19 05:13:00,
2013-01-18 21:18:00,61.2,18.5,30.18,NNE,23,7.0,10.5,19,0.00,,,-99.99,FreeWX-Wi 1.02,2013-01-19 05:18:00,
2013-01-18 21:23:00,61.0,18.5,30.18,NNE,25,7.0,8.7,19,0.00,,,-99.99,FreeWX-Wi 1.02,2013-01-19 05:23:00,
2013-01-18 21:28:00,61.0,18.5,30.18,NNE,22,7.0,11.0,19,0.00,,,-99.99,FreeWX-Wi 1.02,2013-01-19 05:28:00,
2013-01-18 21:33:00,61.0,18.5,30.18,NNE,25,6.0,10.1,19,0.00,,,-99.99,FreeWX-Wi 1.02,2013-01-19 05:33:00,
2013-01-18 21:38:00,60.6,18.1,30.18,NNE,29,7.0,11.0,19,0.00,,,-99.99,FreeWX-Wi 1.02,2013-01-19 05:38:00,
2013-01-18 21:43:00,60.6,18.1,30.18,NNE,31,6.0,11.0,19,0.00,,,-99.99,FreeWX-Wi 1.02,2013-01-19 05:43:00,
2013-01-18 21:48:00,60.4,18.0,30.18,NE,35,6.0,10.5,19,0.00,,,-99.99,FreeWX-Wi 1.02,2013-01-19 05:48:00,
2013-01-18 21:53:00,60.3,17.8,30.18,NE,38,6.0,8.7,19,0.00,,,-99.99,FreeWX-Wi 1.02,2013-01-19 05:53:00,
2013-01-18 21:58:00,60.1,17.8,30.18,NE,41,6.0,10.1,19,0.00,,,-99.99,FreeWX-Wi 1.02,2013-01-19 05:58:00,
2013-01-18 22:03:00,60.4,18.0,30.18,NE,39,6.0,11.0,19,0.00,,,-99.99,FreeWX-Wi 1.02,2013-01-19 06:03:00,
2013-01-18 22:08:00,60.1,17.8,30.18,NE,39,6.0,8.7,19,0.00,,,-99.99,FreeWX-Wi 1.02,2013-01-19 06:08:00,
2013-01-18 22:13:00,60.4,18.0,30.18,NE,40,6.0,8.7,19,0.00,,,-99.99,FreeWX-Wi 1.02,2013-01-19 06:13:00,
2013-01-18 22:18:00,61.0,18.5,30.18,NE,38,5.0,11.4,19,0.00,,,-99.99,FreeWX-Wi 1.02,2013-01-19 06:18:00,
2013-01-18 22:23:00,60.8,18.3,30.18,NE,37,5.0,11.4,19,0.00,,,-99.99,FreeWX-Wi 1.02,2013-01-19 06:23:00,
2013-01-18 22:28:00,60.8,18.3,30.18,NNE,32,6.0,11.0,19,0.00,,,-99.99,FreeWX-Wi 1.02,2013-01-19 06:28:00,
2013-01-18 22:33:00,61.0,18.5,30.18,NNE,32,6.0,12.8,19,0.00,,,-99.99,FreeWX-Wi 1.02,2013-01-19 06:33:00,
2013-01-18 22:38:00,60.8,18.3,30.18,NNE,31,6.0,12.3,19,0.00,,,-99.99,FreeWX-Wi 1.02,2013-01-19 06:38:00,
2013-01-18 22:43:00,60.8,18.3,30.18,NNE,27,7.0,12.8,19,0.00,,,-99.99,FreeWX-Wi 1.02,2013-01-19 06:43:00,
2013-01-18 22:48:00,60.8,18.3,30.18,NNE,27,7.0,10.5,19,0.00,,,-99.99,FreeWX-Wi 1.02,2013-01-19 06:48:00,
2013-01-18 22:53:00,60.1,17.8,30.18,NNE,28,7.0,9.2,19,0.00,,,-99.99,FreeWX-Wi 1.02,2013-01-19 06:53:00,
2013-01-18 22:58:00,59.7,17.4,30.18,NNE,32,7.0,8.3,19,0.00,,,-99.99,FreeWX-Wi 1.02,2013-01-19 06:58:00,
2013-01-18 23:03:00,59.0,16.9,30.18,NE,35,6.0,8.3,19,0.00,,,-99.99,FreeWX-Wi 1.02,2013-01-19 07:03:00,
2013-01-18 23:08:00,58.8,16.7,30.18,NE,40,5.0,5.4,19,0.00,,,-99.99,FreeWX-Wi 1.02,2013-01-19 07:08:00,
2013-01-18 23:13:00,58.5,16.3,30.18,NE,45,5.0,10.1,19,0.00,,,-99.99,FreeWX-Wi 1.02,2013-01-19 07:13:00,
2013-01-18 23:18:00,58.3,16.2,30.18,NE,51,4.0,8.7,19,0.00,,,-99.99,FreeWX-Wi 1.02,2013-01-19 07:18:00,
2013-01-18 23:23:00,57.6,15.6,30.18,ENE,57,4.0,11.0,19,0.00,,,-99.99,FreeWX-Wi 1.02,2013-01-19 07:23:00,
2013-01-18 23:28:00,57.6,15.6,30.18,ENE,59,4.0,9.2,19,0.00,,,-99.99,FreeWX-Wi 1.02,2013-01-19 07:28:00,
2013-01-18 23:33:00,57.9,16.0,30.18,ENE,60,4.0,7.6,19,0.00,,,-99.99,FreeWX-Wi 1.02,2013-01-19 07:33:00,
2013-01-18 23:38:00,58.1,16.2,30.18,ENE,59,4.0,5.8,19,0.00,,,-99.99,FreeWX-Wi 1.02,2013-01-19 07:38:00,
2013-01-18 23:43:00,58.6,16.5,30.18,ENE,59,4.0,8.3,19,0.00,,,-99.99,FreeWX-Wi 1.02,2013-01-19 07:43:00,
2013-01-18 23:48:00,58.6,16.5,30.18,NE,52,4.0,8.7,19,0.00,,,-99.99,FreeWX-Wi 1.02,2013-01-19 07:48:00,
2013-01-18 23:53:00,58.3,16.2,30.18,NE,49,4.0,8.1,19,0.00,,,-99.99,FreeWX-Wi 1.02,2013-01-19 07:53:00,
2013-01-18 23:58:00,58.6,16.5,30.18,NE,44,4.0,7.6,19,0.00,,,-99.99,FreeWX-Wi 1.02,2013-01-19 07:58:00,